{"data":{"norad_id":64351,"epoch":"2026-09-20T23:35:13.989984Z","epoch_age_seconds":92666,"freshness":"FRESH","line1":"1 64351U 25126H   26263.98280081  .00008210  00000+0  28966-3 0  9994","line2":"2 64351  70.0042 259.7057 0002117 238.5944 121.5024 15.29588881 69998","mean_motion":15.29588881,"eccentricity":0.0002117,"inclination_deg":70.0042,"raan_deg":259.7057,"arg_perigee_deg":238.5944,"mean_anomaly_deg":121.5024,"bstar":0.00028966,"rev_number":6999,"period_min":94.142943760063,"perigee_km":475.58912704066,"apogee_km":478.49160913831,"semimajor_km":6855.1773680895,"source":"CELESTRAK","updated_at":"2026-09-21T09:00:35.317246Z"}}